User: anonymous   Login
Location: Bemmer
(51.5498°N, 5.6249°E)
Time: 17:05:08
(UTC+00:00)
Language:

Cosmos 1500 - Orbit

View from above orbital plane
View from above orbital plane
View from above satellite
View from above satellite

Ground track
Ground track

The orbit data is extracted from the following two-line orbital elements,

1 14372U 83099A   21125.94493836  .00000616  00000-0  27572-4 0  9993
2 14372  82.5177  19.6579 0014612 181.5633 189.1320 15.19275910 52749
Epoch (UTC): 05 May 2021 22:40:42
Eccentricity: 0.0014612
inclination: 82.5177°
perigee height: 498 km
apogee height: 518 km
right ascension of ascending node: 19.6579°
argument of perigee: 181.5633°
revolutions per day: 15.19275910
mean anomaly at epoch: 189.1320°
orbit number at epoch: 5274

The dashed part of the orbit path shows where the satellite is in the earth's shadow,  

DLR